FW1087 Weather Reports


Display with metric or nautical units.
time (UTC)temp
F
wind
direction
speed
MPH
gust
MPH
rain 1hr
in
rain 24hr
in
rain mn
in
humidity
%
barometer
mb
20260507121802 39 345 0.0 0.0 0.00 0.67 0.01 99 1009.1
20260507114801 39 345 0.0 0.0 0.00 0.70 0.01 99 1009.0
20260507111804 38 345 0.0 0.0 0.00 0.70 0.01 99 1008.9
20260507104801 38 345 0.0 1.0 0.00 0.71 0.01 99 1008.9
20260507101759 37 345 0.0 1.0 0.00 0.71 0.01 99 1008.9
20260507100300 36 346 0.0 2.0 0.01 0.73 0.01 98 1008.8
20260507091757 37 345 0.0 1.0 0.01 0.74 0.01 98 1008.5
20260507084758 38 345 0.0 2.0 0.00 0.74 0.00 98 1008.8
20260507081755 37 345 1.0 2.0 0.00 0.76 0.00 98 1009.0
20260507074755 38 345 0.0 1.0 0.00 0.77 0.00 98 1008.9
20260507071754 38 345 0.0 1.0 0.00 0.78 0.00 98 1008.7
20260507064754 38 345 1.0 2.0 0.00 0.79 0.00 98 1008.6
20260507061800 38 345 0.0 2.0 0.00 0.81 0.00 98 1008.6
20260507061754 38 345 0.0 2.0 0.00 0.80 0.00 98 1008.8
20260507051756 39 316 0.0 1.0 0.00 0.85 0.00 98 1009.4
20260507050255 40 316 0.0 1.0 0.00 0.88 0.00 98 1009.5
20260507041758 40 315 1.0 4.0 0.00 0.98 0.95 98 1009.8
20260507041752 40 316 0.0 1.0 0.00 0.92 0.00 98 1009.6
20260507033254 41 330 2.0 3.0 0.00 1.01 0.95 98 1009.8
20260507024753 41 307 1.0 3.0 0.01 1.02 0.95 98 1009.3
20260507021754 41 329 1.0 3.0 0.05 1.02 0.95 98 1009.4
20260507014754 41 317 2.0 5.0 0.09 1.01 0.94 98 1010.2
20260507011752 42 356 0.0 3.0 0.08 0.97 0.90 98 1009.8
20260507010255 42 4 0.0 2.0 0.05 0.92 0.85 98 1009.3
20260507001754 42 3 0.0 2.0 0.02 0.89 0.82 98 1008.9
20260506234750 42 16 0.0 4.0 0.01 0.87 0.80 98 1008.5
20260506231749 42 74 0.0 4.0 0.01 0.87 0.80 97 1008.4
20260506224748 42 22 1.0 6.0 0.00 0.86 0.79 97 1008.4
20260506221746 42 27 0.0 3.0 0.00 0.86 0.79 97 1008.3
20260506214747 42 49 1.0 4.0 0.02 0.87 0.79 97 1008.3
20260506211749 42 35 1.0 5.0 0.01 0.97 0.77 97 1008.2
20260506211744 42 18 1.0 6.0 0.02 0.87 0.79 97 1008.4
20260506201744 42 355 1.0 3.0 0.02 0.97 0.77 97 1008.0
20260506194744 42 335 1.0 4.0 0.01 0.96 0.76 97 1007.9
20260506191743 42 0 2.0 8.0 0.01 0.95 0.75 97 1008.0
20260506184745 43 48 1.0 6.0 0.03 0.95 0.75 97 1008.3
20260506181744 42 4 1.0 7.0 0.06 0.94 0.74 97 1008.9
20260506174743 42 34 1.0 8.0 0.09 0.92 0.72 97 1008.7
20260506171744 42 30 1.0 9.0 0.13 0.88 0.68 98 1009.2
20260506164744 41 31 2.0 8.0 0.12 0.83 0.63 97 1009.1
20260506163245 43 315 2.0 5.0 0.08 0.75 0.55 97 1009.1
20260506160245 43 357 2.0 7.0 0.05 0.71 0.51 97 1008.9
20260506151743 44 60 1.0 4.0 0.02 0.67 0.47 97 1009.5
20260506144743 44 7 0.0 3.0 0.04 0.66 0.46 98 1009.3
20260506141745 43 303 2.0 6.0 0.08 0.65 0.45 98 1009.6
20260506134743 44 87 3.0 8.0 0.08 0.62 0.42 98 1009.8
20260506131743 45 302 3.0 8.0 0.08 0.57 0.37 98 1010.2
20260506124745 45 70 1.0 6.0 0.08 0.54 0.34 98 1010.4